User: anonymous   Login
Location: NJAA Observatory
(40.6819°N, 74.8979°W)
Time: 19:35:38
(UTC-04:00)
Language:

Cosmos 1939 Rocket - Orbit

View from above orbital plane
View from above orbital plane
View from above satellite
View from above satellite

Ground track
Ground track

The orbit data is extracted from the following two-line orbital elements,

1 19046U 88032B   17227.87940295 +.00001038 +00000-0 +82095-4 0  9994
2 19046 097.5226 273.0511 0037336 129.8814 230.5704 15.02244771581319
Epoch (UTC): 15 August 2017 21:06:20
Eccentricity: 0.0037336
inclination: 97.5226°
perigee height: 534 km
apogee height: 586 km
right ascension of ascending node: 273.0511°
argument of perigee: 129.8814°
revolutions per day: 15.02244771
mean anomaly at epoch: 230.5704°
orbit number at epoch: 58131

The dashed part of the orbit path shows where the satellite is in the earth's shadow,  

DLR